Hourly Data Report for June 09, 2021

TOBERMORY RCS
ONTARIO
Current Station Operator: ECCC - MSC

45°14'00.000" N
81°38'00.000" W
213.50 m
6128330
71767
TTR

Download Data

Hourly Data (June 2021)
Hourly Data Report for June 9, 2021
TIME
LST
Temp Definition
°C
Dew Point Definition
°C
Rel Hum Definition
%
Precip. Amount Definition
mm

Wind Dir Definition
10's deg

Wind Spd Definition
km/h
Visibility Definition
km
Stn Press Definition
kPa
Hmdx Definition


Wind Chill Definition


Weather Definition


00:00 15.9 15.4 97 0.0 0 1   99.20     LegendNANA
01:00 16.1 15.8 98 0.0 31 2   99.25     LegendNANA
02:00 14.2 14.0 98 0.0 17 4   99.22     LegendNANA
03:00 14.2 14.0 99 0.0 27 3   99.22     LegendNANA
04:00 14.1 13.8 99 0.0 19 1   99.23     LegendNANA
05:00 14.1 13.9 99 0.0 16 2   99.27     LegendNANA
06:00 14.9 14.7 99 0.0 0 1   99.34     LegendNANA
07:00 16.4 16.0 97 0.0 3 7   99.40     LegendNANA
08:00 18.4 15.4 83 0.0 6 12   99.46     LegendNANA
09:00 18.8 13.9 73 0.0 8 11   99.53     LegendNANA
10:00 20.3 13.3 64 0.0 7 14   99.55     LegendNANA
11:00 21.2 12.5 57 0.0 6 14   99.60     LegendNANA
12:00 22.4 12.3 53 0.0 7 13   99.56 25   LegendNANA
13:00 22.5 12.3 53 0.0 6 12   99.56 25   LegendNANA
14:00 23.1 12.2 51 0.0 6 13   99.51 25   LegendNANA
15:00 23.7 12.4 49 0.0 7 13   99.47 26   LegendNANA
16:00 24.6 12.0 45 0.0 6 11   99.41 27   LegendNANA
17:00 24.2 10.8 43 0.0 5 12   99.39 26   LegendNANA
18:00 23.8 10.2 42 0.0 5 9   99.40 25   LegendNANA
19:00 22.1 8.5 42 0.0 7 10   99.39     LegendNANA
20:00 20.9 7.2 41 0.0 6 8   99.42     LegendNANA
21:00 19.4 7.7 47 0.0 8 8   99.47     LegendNANA
22:00 19.4 7.4 46 0.0 7 10   99.51     LegendNANA
23:00 18.7 8.0 50 0.0 8 10   99.48     LegendNANA

Notes on Data Quality.

Legend

  • E = Estimated
  • M = Missing
  • NA = Not Available*
  • [empty] = Indicates an unobserved value
Date modified: